Location: Breitenfeld
(46.8500°N, 15.6333°E)
Time: 18:24:45
(UTC+00:00)

Cosmos 489 Rocket - Pass Details

Date: 09 April 2020
Orbit: 952 x 983 km, 74.0° (Epoch: 03 June)

Event Time Altitude Azimuth Distance (km) Brightness Sun altitude
Rises 20:06:11 0° 338° (NNW) 3,639 8.6 -23.1°
Reaches altitude 10° 20:08:43 10° 339° (NNW) 2,690 7.7 -23.4°
Maximum altitude 20:14:57 82° 67° (ENE) 972 4.4 -24.2°
Enters shadow 20:16:26 55° 146° (SE) 1,140 4.4 -24.4°
